KS5S Weather Reports


Display with metric or nautical units.
time (UTC)temp
F
wind
direction
speed
MPH
gust
MPH
rain 1hr
in
rain 24hr
in
rain mn
in
humidity
%
barometer
mb
20260902045659 87 147 5.0 11.0 0.00 0.00 0.00 63 1012.9
20260902045155 86 153 7.0 9.0 0.00 0.00 0.00 63 1012.9
20260902044650 87 114 3.0 10.0 0.00 0.00 0.00 62 1012.9
20260902044146 87 145 4.0 10.0 0.00 0.00 0.00 62 1012.9
20260902043641 87 147 8.0 11.0 0.00 0.00 0.00 61 1013.0
20260902043136 87 132 4.0 10.0 0.00 0.00 0.00 61 1012.9
20260902042635 87 133 3.0 9.0 0.00 0.00 0.00 61 1012.9
20260902042131 87 140 4.0 12.0 0.00 0.00 0.00 60 1012.8
20260902041631 87 147 3.0 8.0 0.00 0.00 0.00 60 1012.9
20260902041125 87 102 3.0 8.0 0.00 0.00 0.00 60 1012.9
20260902040625 87 189 0.0 6.0 0.00 0.00 0.00 59 1013.0
20260902040120 86 130 2.0 3.0 0.00 0.00 0.00 62 1012.8
20260902035618 86 143 0.0 2.0 0.00 0.00 0.00 61 1012.5
20260902035114 86 103 1.0 3.0 0.00 0.00 0.00 61 1012.4
20260902034612 86 103 0.0 1.0 0.00 0.00 0.00 60 1012.6
20260902034107 87 343 0.0 1.0 0.00 0.00 0.00 60 1012.5
20260902033606 86 81 0.0 2.0 0.00 0.00 0.00 60 1012.4
20260902033101 87 326 0.0 1.0 0.00 0.00 0.00 60 1012.5
20260902032600 87 322 0.0 1.0 0.00 0.00 0.00 59 1012.6
20260902032055 87 322 0.0 2.0 0.00 0.00 0.00 59 1012.5
20260902031549 87 89 0.0 1.0 0.00 0.00 0.00 58 1012.5
20260902031045 87 77 0.0 1.0 0.00 0.00 0.00 58 1012.4
20260902030540 87 71 0.0 2.0 0.00 0.00 0.00 58 1012.3
20260902030040 88 86 0.0 4.0 0.00 0.00 0.00 57 1012.1
20260902025534 88 87 0.0 4.0 0.00 0.00 0.00 57 1012.3
20260902025029 88 235 0.0 4.0 0.00 0.00 0.00 58 1012.1
20260902024520 88 202 0.0 2.0 0.00 0.00 0.00 58 1012.0
20260902024020 88 104 0.0 1.0 0.00 0.00 0.00 57 1012.2
20260902023516 88 100 1.0 3.0 0.00 0.00 0.00 56 1011.9
20260902023015 89 62 0.0 3.0 0.00 0.00 0.00 55 1012.0
20260902022510 89 44 0.0 1.0 0.00 0.00 0.00 55 1011.7
20260902022006 89 352 0.0 1.0 0.00 0.00 0.00 55 1011.8
20260902021501 89 350 0.0 2.0 0.00 0.00 0.00 55 1011.4
20260902020956 89 317 0.0 2.0 0.00 0.00 0.00 54 1011.4
20260902020452 89 44 0.0 1.0 0.00 0.00 0.00 53 1011.5
20260902015948 90 59 0.0 2.0 0.00 0.00 0.00 53 1011.3
20260902015443 90 97 0.0 2.0 0.00 0.00 0.00 52 1011.3
20260902014939 91 127 0.0 2.0 0.00 0.00 0.00 52 1011.3
20260902014435 91 89 0.0 2.0 0.00 0.00 0.00 51 1011.1
20260902013934 91 303 1.0 2.0 0.00 0.00 0.00 50 1011.1
20260902013430 92 95 2.0 2.0 0.00 0.00 0.00 50 1011.3
20260902012925 92 126 0.0 4.0 0.00 0.00 0.00 48 1011.2
20260902012420 92 144 2.0 3.0 0.00 0.00 0.00 48 1011.1
20260902011916 93 198 2.0 3.0 0.00 0.00 0.00 48 1010.9
20260902011410 93 180 2.0 3.0 0.00 0.00 0.00 47 1011.0
20260902010910 93 186 0.0 4.0 0.00 0.00 0.00 47 1011.0
20260902010405 93 127 2.0 4.0 0.00 0.00 0.00 47 1011.0
20260902005904 93 69 0.0 2.0 0.00 0.00 0.00 47 1011.1
20260902005358 94 179 0.0 2.0 0.00 0.00 0.00 46 1010.8
20260902004855 95 184 0.0 2.0 0.00 0.00 0.00 45 1010.7
20260902004354 95 168 0.0 3.0 0.00 0.00 0.00 45 1010.7
20260902003850 96 143 0.0 5.0 0.00 0.00 0.00 44 1010.6
20260902003349 96 85 0.0 5.0 0.00 0.00 0.00 43 1010.8
20260902002845 96 122 2.0 6.0 0.00 0.00 0.00 42 1010.7
20260902002344 96 121 4.0 6.0 0.00 0.00 0.00 42 1010.6
20260902001840 97 127 2.0 5.0 0.00 0.00 0.00 42 1010.9
20260902001335 97 107 1.0 8.0 0.00 0.00 0.00 42 1010.8
20260902000830 98 116 3.0 7.0 0.00 0.00 0.00 42 1010.9
20260902000330 98 87 3.0 5.0 0.00 0.00 0.00 42 1010.8
20260901235825 98 48 3.0 7.0 0.00 0.00 0.00 41 1011.0
20260901235325 98 120 5.0 9.0 0.00 0.00 0.00 40 1010.9
20260901234820 98 175 1.0 6.0 0.00 0.00 0.00 41 1010.9
20260901234314 98 102 0.0 3.0 0.00 0.00 0.00 41 1011.0
20260901233809 97 210 1.0 3.0 0.00 0.00 0.00 42 1011.2
20260901233305 97 159 3.0 3.0 0.00 0.00 0.00 42 1010.9
20260901232800 98 214 0.0 2.0 0.00 0.00 0.00 42 1011.1
20260901232249 98 107 2.0 5.0 0.00 0.00 0.00 42 1011.2
20260901231745 98 203 1.0 3.0 0.00 0.00 0.00 41 1011.2
20260901231236 97 145 0.0 2.0 0.00 0.00 0.00 42 1011.1
20260901230732 97 162 0.0 6.0 0.00 0.00 0.00 42 1011.2
20260901230231 98 143 2.0 3.0 0.00 0.00 0.00 42 1011.3
20260901225727 97 55 0.0 4.0 0.00 0.00 0.00 43 1011.2
20260901225221 97 61 3.0 6.0 0.00 0.00 0.00 43 1011.3
20260901224717 97 119 3.0 10.0 0.00 0.00 0.00 43 1011.3
20260901224213 97 22 0.0 6.0 0.00 0.00 0.00 43 1011.4
20260901223709 97 103 4.0 8.0 0.00 0.00 0.00 42 1011.3
20260901223203 97 132 2.0 6.0 0.00 0.00 0.00 42 1011.4
20260901222700 97 97 7.0 7.0 0.00 0.00 0.00 42 1011.5
20260901222155 97 83 4.0 7.0 0.00 0.00 0.00 42 1011.5
20260901221651 97 101 2.0 7.0 0.00 0.00 0.00 42 1011.4
20260901221147 97 98 6.0 9.0 0.00 0.00 0.00 42 1011.1
20260901220646 97 111 2.0 11.0 0.00 0.00 0.00 43 1011.3
20260901220145 97 63 1.0 10.0 0.00 0.00 0.00 42 1011.4
20260901215644 98 143 3.0 7.0 0.00 0.00 0.00 40 1011.2
20260901215139 98 78 3.0 6.0 0.00 0.00 0.00 40 1011.3
20260901214637 98 103 0.0 5.0 0.00 0.00 0.00 41 1011.4
20260901214136 98 49 1.0 5.0 0.00 0.00 0.00 41 1011.5
20260901213631 98 93 4.0 9.0 0.00 0.00 0.00 41 1011.5
20260901213125 98 79 1.0 5.0 0.00 0.00 0.00 41 1011.7
20260901212619 98 151 3.0 6.0 0.00 0.00 0.00 41 1011.7
20260901212116 98 146 2.0 9.0 0.00 0.00 0.00 41 1011.4
20260901211611 98 104 7.0 12.0 0.00 0.00 0.00 40 1011.8
20260901211107 100 120 9.0 12.0 0.00 0.00 0.00 39 1011.9
20260901210603 100 191 2.0 8.0 0.00 0.00 0.00 40 1011.9
20260901210058 100 173 7.0 9.0 0.00 0.00 0.00 39 1011.9
20260901205553 99 183 5.0 9.0 0.00 0.00 0.00 41 1012.1
20260901205048 98 161 6.0 8.0 0.00 0.00 0.00 41 1011.9
20260901204544 98 142 4.0 8.0 0.00 0.00 0.00 41 1012.2
20260901204038 99 101 5.0 6.0 0.00 0.00 0.00 39 1012.0
20260901203533 100 36 3.0 15.0 0.00 0.00 0.00 40 1012.1
20260901203028 100 132 1.0 7.0 0.00 0.00 0.00 40 1012.2
20260901202523 99 117 6.0 10.0 0.00 0.00 0.00 40 1012.1
20260901202019 99 85 3.0 12.0 0.00 0.00 0.00 41 1012.4
20260901201514 100 122 7.0 17.0 0.00 0.00 0.00 40 1012.3
20260901201008 99 129 4.0 10.0 0.00 0.00 0.00 41 1012.2
20260901200503 99 43 2.0 11.0 0.00 0.00 0.00 41 1012.4
20260901200002 101 68 5.0 9.0 0.00 0.00 0.00 40 1012.4
20260901195500 100 284 2.0 6.0 0.00 0.00 0.00 39 1012.4
20260901194954 99 121 4.0 15.0 0.00 0.00 0.00 40 1012.4
20260901194450 99 60 4.0 7.0 0.00 0.00 0.00 40 1012.5
20260901193946 100 46 7.0 11.0 0.00 0.00 0.00 39 1012.6
20260901193445 100 95 3.0 8.0 0.00 0.00 0.00 40 1012.6
20260901192944 98 240 0.0 3.0 0.00 0.00 0.00 41 1012.6
20260901192440 96 179 1.0 4.0 0.00 0.00 0.00 44 1013.1
20260901191936 96 120 3.0 9.0 0.00 0.00 0.00 44 1012.9
20260901191432 98 139 3.0 9.0 0.00 0.00 0.00 41 1012.8
20260901190928 100 161 2.0 7.0 0.00 0.00 0.00 40 1013.1
20260901190427 98 112 4.0 11.0 0.00 0.00 0.00 42 1013.1
20260901185925 98 171 2.0 7.0 0.00 0.00 0.00 42 1013.0
20260901185426 97 117 4.0 12.0 0.00 0.00 0.00 43 1013.1
20260901184926 97 165 3.0 8.0 0.00 0.00 0.00 43 1013.3
20260901184421 97 328 0.0 9.0 0.00 0.00 0.00 42 1013.3
20260901183916 98 165 4.0 15.0 0.00 0.00 0.00 42 1013.3
20260901183416 98 113 3.0 11.0 0.00 0.00 0.00 42 1013.5
20260901182912 97 325 1.0 8.0 0.00 0.00 0.00 44 1013.7
20260901182407 97 138 7.0 10.0 0.00 0.00 0.00 44 1013.7
20260901181902 97 122 3.0 11.0 0.00 0.00 0.00 43 1014.2
20260901181356 96 33 3.0 7.0 0.00 0.00 0.00 45 1014.2
20260901180855 96 102 6.0 11.0 0.00 0.00 0.00 45 1014.2
20260901180354 96 29 3.0 9.0 0.00 0.00 0.00 46 1014.4
20260901175853 96 42 7.0 10.0 0.00 0.00 0.00 45 1014.2
20260901175348 95 188 3.0 8.0 0.00 0.00 0.00 45 1014.2
20260901174843 98 98 4.0 12.0 0.00 0.00 0.00 43 1014.4
20260901174339 97 148 5.0 12.0 0.00 0.00 0.00 43 1014.4
20260901173834 96 87 4.0 5.0 0.00 0.00 0.00 46 1014.3
20260901173329 95 180 6.0 12.0 0.00 0.00 0.00 46 1014.3
20260901172826 98 178 6.0 7.0 0.00 0.00 0.00 44 1014.5
20260901172325 98 342 7.0 7.0 0.00 0.00 0.00 44 1014.7
20260901171823 97 87 1.0 5.0 0.00 0.00 0.00 45 1014.5
20260901171322 97 164 5.0 8.0 0.00 0.00 0.00 46 1014.8
20260901170817 96 244 4.0 11.0 0.00 0.00 0.00 46 1014.9
20260901170316 96 184 3.0 6.0 0.00 0.00 0.00 46 1014.9
20260901165815 96 207 4.0 5.0 0.00 0.00 0.00 46 1014.7
20260901165310 96 214 3.0 7.0 0.00 0.00 0.00 47 1014.9
20260901164807 95 244 2.0 10.0 0.00 0.00 0.00 48 1015.0
20260901164302 95 246 5.0 12.0 0.00 0.00 0.00 48 1015.1
20260901163757 95 133 3.0 8.0 0.00 0.00 0.00 48 1015.0
20260901163256 95 260 2.0 9.0 0.00 0.00 0.00 49 1015.4
20260901162751 94 230 4.0 8.0 0.00 0.00 0.00 49 1015.1
20260901162251 95 120 3.0 6.0 0.00 0.00 0.00 48 1015.2
20260901161749 95 187 2.0 9.0 0.00 0.00 0.00 48 1015.2
20260901161244 94 182 6.0 9.0 0.00 0.00 0.00 49 1015.3
20260901160740 94 229 2.0 7.0 0.00 0.00 0.00 50 1015.1
20260901160236 94 251 2.0 7.0 0.00 0.00 0.00 51 1015.0
20260901155735 93 198 2.0 9.0 0.00 0.00 0.00 52 1015.1
20260901155230 94 197 8.0 11.0 0.00 0.00 0.00 50 1015.4
20260901154725 93 230 5.0 7.0 0.00 0.00 0.00 51 1015.1
20260901154221 92 283 4.0 8.0 0.00 0.00 0.00 53 1015.0
20260901153716 92 272 1.0 8.0 0.00 0.00 0.00 54 1015.1
20260901153215 93 198 5.0 9.0 0.00 0.00 0.00 53 1015.1
20260901152709 93 198 5.0 9.0 0.00 0.00 0.00 53 1015.1
20260901152208 91 200 3.0 8.0 0.00 0.00 0.00 55 1015.1
20260901151704 92 241 3.0 7.0 0.00 0.00 0.00 55 1015.0
20260901151158 91 248 3.0 8.0 0.00 0.00 0.00 55 1014.8
20260901150658 91 258 4.0 8.0 0.00 0.00 0.00 57 1015.1
20260901150156 91 255 5.0 7.0 0.00 0.00 0.00 56 1015.3
20260901145653 91 240 2.0 9.0 0.00 0.00 0.00 57 1015.2
20260901145148 91 221 4.0 6.0 0.00 0.00 0.00 57 1015.1
20260901144644 90 189 2.0 5.0 0.00 0.00 0.00 60 1015.1
20260901144138 89 233 2.0 7.0 0.00 0.00 0.00 62 1015.3
20260901143633 89 222 3.0 6.0 0.00 0.00 0.00 61 1015.4
20260901143130 88 233 5.0 7.0 0.00 0.00 0.00 62 1015.3
20260901142626 89 191 4.0 6.0 0.00 0.00 0.00 63 1015.3
20260901142125 88 180 4.0 6.0 0.00 0.00 0.00 63 1015.3
20260901141619 88 186 5.0 8.0 0.00 0.00 0.00 64 1015.4
20260901141114 87 226 2.0 5.0 0.00 0.00 0.00 65 1015.4
20260901140613 87 217 2.0 5.0 0.00 0.00 0.00 67 1015.3
20260901140113 87 160 4.0 6.0 0.00 0.00 0.00 66 1015.4
20260901135612 87 269 0.0 4.0 0.00 0.00 0.00 67 1015.3
20260901135108 86 237 1.0 8.0 0.00 0.00 0.00 69 1015.4
20260901134604 86 153 2.0 5.0 0.00 0.00 0.00 69 1015.3
20260901134058 85 222 2.0 5.0 0.00 0.00 0.00 71 1015.4
20260901133557 85 178 3.0 5.0 0.00 0.00 0.00 70 1015.4
20260901133056 85 188 2.0 5.0 0.00 0.00 0.00 71 1015.2
20260901132550 85 253 1.0 6.0 0.00 0.00 0.00 71 1015.4
20260901132044 84 199 0.0 4.0 0.00 0.00 0.00 72 1015.2
20260901131538 83 151 4.0 5.0 0.00 0.00 0.00 73 1015.3
20260901131034 83 170 2.0 5.0 0.00 0.00 0.00 73 1015.2
20260901130533 82 176 5.0 5.0 0.00 0.00 0.00 74 1015.0
20260901130032 82 159 2.0 4.0 0.00 0.00 0.00 75 1014.8
20260901125531 82 210 1.0 3.0 0.00 0.00 0.00 75 1014.9
20260901125026 81 165 0.0 3.0 0.00 0.00 0.00 75 1014.7
20260901124522 80 159 1.0 3.0 0.00 0.00 0.00 77 1014.8
20260901124021 80 186 0.0 2.0 0.00 0.00 0.00 77 1014.8
20260901123516 80 241 0.0 3.0 0.00 0.00 0.00 78 1014.9
20260901123015 79 189 3.0 3.0 0.00 0.00 0.00 79 1014.7
20260901122514 78 135 0.0 2.0 0.00 0.00 0.00 79 1014.7
20260901122013 78 284 0.0 2.0 0.00 0.00 0.00 79 1014.4
20260901121509 78 322 0.0 1.0 0.00 0.00 0.00 80 1014.3
20260901121004 78 322 0.0 1.0 0.00 0.00 0.00 80 1014.4
20260901120503 78 217 0.0 1.0 0.00 0.00 0.00 79 1014.4
20260901115959 78 216 0.0 2.0 0.00 0.00 0.00 79 1014.4
20260901115454 78 230 2.0 3.0 0.00 0.00 0.00 79 1014.2
20260901114951 78 218 0.0 2.0 0.00 0.00 0.00 78 1014.3
20260901114447 78 214 0.0 3.0 0.00 0.00 0.00 78 1014.2
20260901113944 78 204 2.0 3.0 0.00 0.00 0.00 78 1014.1
20260901113444 78 206 1.0 3.0 0.00 0.00 0.00 78 1014.2
20260901112940 78 242 0.0 2.0 0.00 0.00 0.00 78 1014.2
20260901112435 78 212 0.0 3.0 0.00 0.00 0.00 78 1014.3
20260901111929 79 173 0.0 3.0 0.00 0.00 0.00 77 1014.1
20260901111428 79 219 1.0 2.0 0.00 0.00 0.00 77 1014.2
20260901110926 79 204 2.0 3.0 0.00 0.00 0.00 76 1014.1
20260901110423 79 186 2.0 4.0 0.00 0.00 0.00 76 1013.8
20260901105918 79 231 0.0 2.0 0.00 0.00 0.00 76 1014.1
20260901105414 79 203 0.0 3.0 0.00 0.00 0.00 75 1013.8
20260901104909 79 301 1.0 2.0 0.00 0.00 0.00 76 1013.9
20260901104404 79 241 1.0 2.0 0.00 0.00 0.00 75 1013.9
20260901103900 80 225 0.0 2.0 0.00 0.00 0.00 75 1014.0
20260901103354 80 225 1.0 2.0 0.00 0.00 0.00 75 1013.8
20260901102849 80 218 0.0 2.0 0.00 0.00 0.00 74 1014.0
20260901102348 80 234 1.0 2.0 0.00 0.00 0.00 74 1014.0
20260901101844 80 212 2.0 3.0 0.00 0.00 0.00 74 1013.9
20260901101339 80 244 2.0 3.0 0.00 0.00 0.00 74 1014.0
20260901100839 80 233 1.0 3.0 0.00 0.00 0.00 73 1014.0
20260901100339 80 214 1.0 2.0 0.00 0.00 0.00 73 1013.9
20260901095833 80 264 2.0 2.0 0.00 0.00 0.00 73 1013.9
20260901095330 81 219 0.0 2.0 0.00 0.00 0.00 73 1013.9
20260901094824 81 257 1.0 2.0 0.00 0.00 0.00 72 1014.1
20260901094319 81 218 0.0 2.0 0.00 0.00 0.00 72 1014.2
20260901093815 81 228 0.0 2.0 0.00 0.00 0.00 71 1014.0
20260901093313 82 196 1.0 3.0 0.00 0.00 0.00 71 1014.2
20260901092810 82 234 0.0 3.0 0.00 0.00 0.00 71 1014.2
20260901092306 82 255 2.0 3.0 0.00 0.00 0.00 70 1013.9
20260901091801 82 229 1.0 3.0 0.00 0.00 0.00 70 1014.0
20260901091256 82 263 2.0 5.0 0.00 0.00 0.00 69 1014.0
20260901090755 82 208 2.0 5.0 0.00 0.00 0.00 69 1014.1
20260901090250 82 227 2.0 4.0 0.00 0.00 0.00 69 1014.1
20260901085746 83 228 2.0 4.0 0.00 0.00 0.00 68 1014.0
20260901085242 83 235 2.0 4.0 0.00 0.00 0.00 68 1013.8
20260901084738 83 202 3.0 6.0 0.00 0.00 0.00 68 1014.0
20260901084234 83 221 2.0 6.0 0.00 0.00 0.00 67 1014.0
20260901083734 83 161 3.0 5.0 0.00 0.00 0.00 67 1014.2
20260901083234 83 189 4.0 9.0 0.00 0.00 0.00 66 1014.1
20260901082732 84 194 1.0 5.0 0.00 0.00 0.00 66 1013.8
20260901082228 84 184 2.0 6.0 0.00 0.00 0.00 66 1013.9
20260901081723 84 161 2.0 9.0 0.00 0.00 0.00 65 1014.1
20260901081223 84 174 2.0 7.0 0.00 0.00 0.00 65 1014.0
20260901080718 84 182 6.0 7.0 0.00 0.00 0.00 64 1014.0
20260901080217 84 170 1.0 8.0 0.00 0.00 0.00 64 1014.2
20260901075711 84 191 3.0 7.0 0.00 0.00 0.00 63 1014.0
20260901075206 84 207 4.0 6.0 0.00 0.00 0.00 63 1013.8
20260901074706 84 158 8.0 8.0 0.00 0.00 0.00 62 1013.8
20260901074200 84 174 3.0 7.0 0.00 0.00 0.00 62 1013.9
20260901073657 85 208 6.0 7.0 0.00 0.00 0.00 62 1013.8
20260901073152 85 185 6.0 8.0 0.00 0.00 0.00 62 1013.9
20260901072647 85 199 2.0 11.0 0.00 0.00 0.00 61 1013.8
20260901072142 85 179 3.0 7.0 0.00 0.00 0.00 61 1013.7
20260901071637 85 172 5.0 8.0 0.00 0.00 0.00 61 1014.0
20260901071137 85 167 3.0 7.0 0.00 0.00 0.00 60 1013.9
20260901070631 86 136 2.0 8.0 0.00 0.00 0.00 59 1013.7
20260901070127 86 145 5.0 9.0 0.00 0.00 0.00 59 1013.7
20260901065620 86 182 3.0 8.0 0.00 0.00 0.00 58 1013.6
20260901065115 85 170 3.0 7.0 0.00 0.00 0.00 58 1013.7
20260901064612 84 175 2.0 6.0 0.00 0.00 0.00 56 1013.8
20260901064108 84 129 3.0 6.0 0.00 0.00 0.00 55 1013.8
20260901063605 84 151 3.0 4.0 0.00 0.00 0.00 55 1013.2
20260901063101 84 136 2.0 5.0 0.00 0.00 0.00 55 1013.7
20260901062556 84 149 1.0 5.0 0.00 0.00 0.00 54 1013.4
20260901062052 85 84 0.0 3.0 0.00 0.00 0.00 53 1013.2
20260901061548 86 139 3.0 6.0 0.00 0.00 0.00 51 1013.2
20260901061042 86 159 2.0 8.0 0.00 0.00 0.00 51 1013.4
20260901060537 86 143 3.0 7.0 0.00 0.00 0.00 50 1013.2
20260901060032 86 207 1.0 6.0 0.00 0.00 0.00 49 1013.2
20260901055528 87 73 0.0 5.0 0.00 0.00 0.00 49 1013.3
20260901055025 88 152 2.0 7.0 0.00 0.00 0.00 48 1013.1
20260901054521 88 149 7.0 11.0 0.00 0.00 0.00 48 1013.0
20260901054017 87 185 2.0 5.0 0.00 0.00 0.00 48 1012.8
20260901053513 88 164 3.0 5.0 0.00 0.00 0.00 46 1012.8
20260901053009 88 194 2.0 5.0 0.00 0.00 0.00 46 1012.6
20260901052504 88 174 5.0 6.0 0.00 0.00 0.00 45 1012.8
20260901052004 88 163 1.0 5.0 0.00 0.00 0.00 45 1012.7
20260901051459 87 152 3.0 4.0 0.00 0.00 0.00 45 1012.6
20260901050957 88 184 2.0 5.0 0.00 0.00 0.00 44 1012.8
20260901050452 87 168 1.0 5.0 0.00 0.00 0.00 45 1012.6
20260901045952 87 176 0.0 4.0 0.00 0.00 0.00 45 1012.6